XII REVEZAMENTO DAS NASCENTES DO IGUAÇÚ

3a0eb305932201fc5ae900493832352a

Data:
31/07/2016


Corrida - Mista


Cl.Num.NomeSx.EquipeTempoLiquido
153EQUIPE RODRIGUES AZULMEQUIPE RODRIGUES AZUL06:33:1806:33:16
252EQUIPE RODRIGUES FORTEMEQUIPE RODRIGUES FORTE06:48:4806:48:45
358MADERO RUNNING TEAMMMADERO RUNNING TEAM07:08:0207:08:01
459BOMBEIROS DE CRISTO - RUMO AO INFINITOMBOMBEIROS DE CRISTO - RUMO AO INFINITO07:55:2007:55:20
590PREF. MUN. DE CAMPINA GRANDE DO SUL / PRMPREF. MUN. DE CAMPINA GRANDE DO SUL / PR08:00:3608:00:35
667AUTOPEÇAS ALVORADA - ALVORADAMAUTOPEÇAS ALVORADA - ALVORADA08:09:5408:09:51
722DX NA VEIAMDX NA VEIA08:21:4408:21:43
8112VERSÁTIL TAMANDARÉ EQUIPE 1MVERSÁTIL TAMANDARÉ EQUIPE 108:40:2008:40:15
988MIX 3 ASSESSORIAMMIX 3 ASSESSORIA08:53:2708:53:22
1095BOMBEIROS DE CRISTO - TURBOMBOMBEIROS DE CRISTO - TURBO08:56:3208:56:29
118LION TRIATHLON 01MLION TRIATHLON 109:07:5909:07:57
1287HERÓIS DA GYM CLUBMHERÓIS DA GYM CLUB09:15:0009:14:57
1346CORREDORES DO BACACHERI 1MCORREDORES DO BACACHERI 109:18:0109:17:52
1454CORREDORES DO BACACHERI 2MCORREDORES DO BACACHERI 209:18:0109:17:53
15101M10MM109:20:2209:20:18
1612AMIGOS DO REVEZAMENTOMAMIGOS DO REVEZAMENTO09:42:2409:42:20
1782CIA DANIMCIA DANI09:56:0309:55:55
18110CIA DUDUMCIA DUDU10:01:4910:01:42
1937#CARBOLINDOSM#CARBOLINDOS10:05:4210:05:34
2019HYPE FUN RUNMHYPE FUN RUN10:15:4110:15:35
2179BARIGUI RUNNERSMBARIGUI RUNNERS10:22:5110:22:48
2271MARUMBIMMARUMBI10:26:5810:26:51
237822º BPM MISTAM22º BPM MISTA10:37:1110:37:01
246ESPINDOLA RUNNERSMESPINDOLA RUNNERS10:38:2210:38:18
2551KM5MKM510:49:2410:49:22
2694G5 ESPORTES / TOP LINE LOCAÇÕESMG5 ESPORTES / TOP LINE LOCAÇÕES11:09:0011:08:53

Corrida - Livre


Cl.Num.NomeSx.EquipeTempoLiquido
148TRIFOLEGO.KMTRIFOLEGO.K07:37:0507:37:04
21SUPERMERCADOS JACOMARMSUPERMERCADOS JACOMAR07:50:0107:49:59
340CR RUNNERS BRASIL K42MCR RUNNERS BRASIL K4208:01:5208:01:49
435SMECELJ QUATRO BARRAS / CORREDORES DA GRACIOSAMSMECELJ QUATRO BARRAS / CORREDORES DA GRACIOSA08:11:5908:11:58
556EQUIPILEQUE: CORRES & BEBESMEQUIPILEQUE: CORRES & BEBES08:24:1308:24:11
655PREFEITURA DE PINHAISMPREFEITURA DE PINHAIS08:24:1808:24:16
729SANEPAR RIO PARANÁMSANEPAR RIO PARANÁ08:35:1008:35:02
898REDIMINDO BEN JOHNSONMREDIMINDO BEN JOHNSON08:36:1108:36:08
999TEAM TOP RUNNERS - ALM. TAMANDARÉMTEAM TOP RUNNERS - ALM. TAMANDARÉ08:39:4908:39:46
107722º BPM LIVREM22º BPM LIVRE08:51:3608:51:29
1157OS PÉ-DE-LEQUEMOS PÉ-DE-LEQUE09:12:3609:12:29
1260AUTOPEÇAS ALVORADA - TANOSHIMAUTOPEÇAS ALVORADA - TANOSHI09:24:4209:24:33
1369COMPAGASMCOMPAGAS09:30:2709:30:23
1475DONOS DA RUAMDONOS DA RUA09:38:4609:38:42
1517EQUIPE QUENIAMEQUIPE QUENIA09:46:5509:46:51
1611CHOICE RUNNERSMCHOICE RUNNERS09:49:0209:48:55
177PERDIGAO RUNNERSMPERDIGAO RUNNERS09:54:5009:54:42
1831JOAO ANDARILHOMJOAO ANDARILHO09:55:4709:55:42
1966LOS VAGOS RUNNERSMLOS VAGOS RUNNERS09:57:2209:57:18
20111CORREDORES CAMPO MAGRO - PREFEITURA DE CAMPO MAGROMCORREDORES CAMPO MAGRO - PREFEITURA DE CAMPO MAGRO10:01:1610:01:06
21100CODE RUNNERSMCODE RUNNERS10:01:1810:01:09
2261CORREDORES SUPERAÇÃO MASCULINOMCORREDORES SUPERAÇÃO MASCULINO10:01:4810:01:42
23105COMIGO NINGUÉM PODE 1 - PREFEITURA DE COLOMBOMCOMIGO NINGUÉM PODE 1 - PREFEITURA DE COLOMBO10:02:0510:02:01
2462AUTOPEÇAS ALVORADA - ARAUCÁRIAMAUTOPEÇAS ALVORADA - ARAUCÁRIA10:04:3410:04:28
2542VK RUN/ DONT STOP RUNNINGMVK RUN/ DONT STOP RUNNING10:09:4710:09:39
2623TRANSMITINDO FORÇAMTRANSMITINDO FORÇA10:09:5110:09:44
2785ACADEMIA PLENA FORMA COLOMBOMACADEMIA PLENA FORMA COLOMBO10:10:2510:10:20
2833FOX RUNMFOX RUN10:19:1710:19:16
2913LION TRIATHLON 02MLION TRIATHLON 210:21:1610:21:13
309VOANDO BAIXO RUN TEAM - AMVOANDO BAIXO RUN TEAM - A10:21:4210:21:37
3114VOANDO BAIXO RUN TEAM - BMVOANDO BAIXO RUN TEAM - B10:21:4210:21:37
3230EQUIPE MRP OMEGAMEQUIPE MRP OMEGA10:21:5210:21:47
3392PR410 RUN CLUBMPR41 RUN CLUB10:25:0510:25:01
3421DX THE EXTREMEMDX THE EXTREME10:29:3810:29:29
3547CONNECT SPORTSMCONNECT SPORTS10:32:0610:31:56
3628EQUIPE MRP ALFAMEQUIPE MRP ALFA10:34:5510:34:50
37102JAC RUNNERSMJAC RUNNERS10:35:0010:34:50
38103ENDURANCEMENDURANCE10:36:0710:35:57
392A2 SPORTS 1MA2 SPORTS 110:39:1310:39:04
4034JUMA RUNNERSMJUMA RUNNERS10:40:2010:40:17
4173LIVMLIV10:47:1010:47:04
4274BIG RIVER FARMMBIG RIVER FARM10:47:5010:47:43
4316A2 SPORTS 2MA2 SPORTS 210:52:1510:52:06
4410FOUR ONE RESISTANCEMFOUR ONE RESISTANCE10:56:1310:56:05
4544BALA PERDIDAMBALA PERDIDA10:56:2210:56:22
4645STARS RUNNERSMSTARS RUNNERS10:58:0910:58:05
4732SANEPAR RIO IGUAÇUMSANEPAR RIO IGUAÇU11:00:0810:59:59
484TI-REXMTI-REX11:03:0411:02:58
495FOUR ONE FORCEMFOUR ONE FORCE11:06:2011:06:12
5080COXA RUNNERS IIMCOXA RUNNERS II11:08:0711:08:01
513FOUR ONE SPEEDMFOUR ONE SPEED11:10:5911:10:51
5289PHIRINFINFINMPHIRINFINFIN11:13:0511:12:58
5386BOMBEIROS DE CRISTO - NO LIMITEMBOMBEIROS DE CRISTO - NO LIMITE11:18:1811:18:16
5496BORA EQUIPEMBORA EQUIPE11:20:2311:20:15
5527MOMMIES AND DADDIES RUNNERSMMOMMIES AND DADDIES RUNNERS11:21:1911:21:12
5665AUTOPEÇAS ALVORADA - ML SPORTSMAUTOPEÇAS ALVORADA - ML SPORTS11:23:3811:23:35
57109ARTMART11:32:4811:32:44
5843CORREDORAS SUPERAÇÃOMCORREDORAS SUPERAÇÃO11:34:2611:34:21
5981COXA RUNNERS IMCOXA RUNNERS I11:41:2611:41:20
6015LION TRIATHLON 03MLION TRIATHLON 311:45:2611:45:23
6124DX RUNNERSMDX RUNNERS12:05:0412:05:02

Corrida - Aberta Fem


Cl.Num.NomeSx.EquipeTempoLiquido
141CR RUNNERS BRASIL NUTRIAL SUPLEMENTOS K42 MR FITFCR RUNNERS BRASIL NUTRIAL SUPLEMENTOS K42 MR FIT09:00:5409:00:52
2107EQUIPIAZZA MULHERESFEQUIPIAZZA MULHERES09:03:0809:03:05
370BALA PERDIDA - EQUIPE FEMININAFBALA PERDIDA - EQUIPE FEMININA10:24:4310:24:40
472ACADEMIA ENTRE ELASFACADEMIA ENTRE ELAS10:43:4310:43:38
518PENELOPES RUNNERSFPENELOPES RUNNERS11:17:5311:17:48

Corrida - Aberta Masc


Cl.Num.NomeSx.EquipeTempoLiquido
1106EQUIPIAZZA JUSTMEQUIPIAZZA JUST06:58:4106:58:40
268CR RUNNERS BRASIL/ NUTRIAL/ K42MCR RUNNERS BRASIL/ NUTRIAL/ K4207:18:2607:18:23
393G5 ESPORTES / LIDERANÇA HOME DESIGNMG5 ESPORTES / LIDERANÇA HOME DESIGN07:24:5807:24:55
438SIEMACOMSIEMACO07:40:5607:40:56
539PIRAQUARA RUNNERSMPIRAQUARA RUNNERS08:15:0208:14:56
620ACADEMIA EVOLUTION RUNNERSMACADEMIA EVOLUTION RUNNERS08:27:5108:27:49
750IIIGUAAAMIIIGUAAA08:48:3508:48:26
8113SÓ CORRENDO / BOLA RUNNINGM09:39:4709:39:40
976THREAD.RUN()MTHREAD.RUN()09:56:2209:56:14

Corrida - Veterano Masc


Cl.Num.NomeSx.EquipeTempoLiquido     
126CR RUNNERS VETERANOSMCR RUNNERS VETERANOS07:55:0707:55:06
2104GUARDA MUNICIPAL DE CURITIBAMGUARDA MUNICIPAL DE CURITIBA08:00:5508:00:52
3108BQ RUNNERS / FARMATOTALMBQ RUNNERS / FARMATOTAL08:05:1108:05:11
464AUTOPEÇAS ALVORADA - ESTANDARTEMAUTOPEÇAS ALVORADA - ESTANDARTE09:32:3009:32:29

Ciclismo - Solo Fem


Cl.Num.NomeId.FaixaCl.Fx.Sx.TempoLiquido
1509SHEILA MENDONÇA GOMES CORADIN39F30391F04:51:5904:51:48
2504JAKELINE GURAK34F30392F05:01:1104:59:01
3506KELLYN CAROLINE CUMIN38F30393F05:15:4605:15:42
4505JULIANA STANGHERLIN32F30394F05:19:4005:19:05
5664JAQUELINE BRAGA30F30395F05:36:4705:36:40
6514CRISTIANE TEOLINDA BODNAR40F40991F05:45:1105:45:01
7512ANA MARIA DE FREITAS46F40992F05:52:1905:51:16
8519SILMARA DE CAMARGO40F40993F06:22:4206:21:54
9508RUBIANE FIGUEIREDO LIMA33F30396F06:28:1906:27:46
10657AUREA ZOPPO BUDZIAK25F18291F06:28:3506:28:30
11501CAROLINA NUNES DA SILVA37F30397F06:43:0306:42:18
12515DANIELE PACHECO40F40994F07:14:4007:13:30
13511SHEILA DOS SANTOS DA CRUZ24F18292F07:17:4407:17:13
14503DANIELLE CRISTINE MROCZEK34F30398F07:41:3707:41:02
15516EVANIR SALETTE MINOSSO56F40995F07:59:3907:59:04
16518RITA DE CASSIA TEIDER ROCHA DE FARIA48F40996F08:07:0008:06:44
17513APARECIDA DE SOUZA MROCZEK55F40997F08:11:0008:10:25
18517JOSEFINA AMPARO GONZALEZ DE OLIVEIRA51F40998F08:18:3508:17:03
19502DANIELA QUILES FUJITA32F30399F08:19:5508:19:20
20507PATRICIA APARECIDA MROCZEK38F303910F08:30:4908:30:14

Ciclismo - Solo Masc


Cl.Num.NomeId.FaixaCl.Fx.Sx.TempoLiquido
1578SAMUEL STACHERA19M1829-M03:45:4103:45:41
2564RODRIGO TREVIZAN36M30391M03:48:5103:48:49
3579ALDO CESAR BATISTA48M40991M03:50:5603:50:55
4569ANTONY GUSTAVO BICIGO24M18291M03:51:0003:50:59
5557MIGUEL AUGUSTO DICALO36M30392M03:51:2403:51:13
6531ARIEL FERREIRA DO AMARAL NETO39M30393M03:53:1003:53:08
7523ALEXANDRE GARZARO39M30394M03:53:1003:53:08
8532CESAR MIRANDA DE SOUZA35M30395M04:00:1304:00:11
9656LEONARDO JOSE BUDZIAK28M18292M04:00:2304:00:21
10541EMERSON SANTANA BERNARDO36M30396M04:04:2104:04:21
11550JOSE RONALDO TRINDADE38M30397M04:08:2504:08:25
12618JOÃO PEDRO DE JESUS CARVALHO56M40992M04:08:5804:08:58
13585ANTONIO ILSON KOTOVISKI FILHO40M40993M04:13:3204:13:32
14638PAULO JUSTINIANO RIBEIRO JUNIOR49M40994M04:16:2504:16:25
15554LUCAS PAULO TOREZIN33M30398M04:16:3604:16:04
16540EDUARDO OLIVEIRA DA CRUZ37M30399M04:21:2004:21:13
17568WAGNER BARBOSA DA SILVA35M303910M04:22:3304:22:24
18552LAERCIO POLI31M303911M04:23:5504:23:50
19551JUAN IGNACIO SCHENONE34M303912M04:27:3504:27:30
20528ANDERSON CRISTIAN STOCCO37M303913M04:28:3204:28:22
21572EDUARDO WINTERS25M18293M04:31:0404:30:52
22583ANDERSON MARCIO FERREIRA40M40995M04:31:1204:30:59
23555MARCOS HENRIQUE ALVES PEREIRA35M303914M04:31:3104:31:28
24556MAURÍCIO LUÍS MOLETTA30M303915M04:41:1004:41:02
25563RICARDO GARBUIO34M303916M04:41:5504:41:50
26522AGENOR SEQUINEL FILHO34M303917M04:42:5704:42:53
27650TEÓFILO HABINOVSKI JUNIOR41M40996M04:45:5704:45:13
28617JOÃO JORGE KLEIN44M40997M04:46:1704:46:13
29526ANDERSON ALESSI GUEBUR36M303918M04:48:2704:48:15
30553LEONARDO RUI CORBETTA32M303919M04:50:1604:50:02
31662ADILSON LUIS LARA47M40998M04:51:1104:51:06
32634MOZAR VALENTE47M40999M04:54:2904:54:26
33597EDSON WIEZBICKI47M409910M04:56:5004:56:34
34587BEN HUR GABARDO55M409911M04:57:4304:57:36
35628MARCELO FERREIRA49M409912M04:58:2504:58:19
36559RAFAEL AMANCIO DE PAULA38M303920M05:03:5905:02:38
37592CESAR MATOS43M409913M05:04:4405:04:35
38567TRAJANO RODRIGO ANDREOLA SOARES31M303921M05:09:3305:09:19
39593CLAUDEMIR KLEINA42M409914M05:12:2305:11:30
40576MARCO ANTONIO DA CRUZ JUNIOR26M18294M05:12:4505:12:39
41594CLODOALDO ADRIANO PASQUINI46M409915M05:13:4705:13:20
42596DAVID RANGEL DE MELLO40M409916M05:14:2505:13:20
43573LUIZ CARLOS SCHUMAKER FILHO29M18295M05:15:4205:14:21
44661SIDNEY NOVAKOVSKI40M409917M05:16:3005:15:21
45581ALEXANDRE AMARAL DE MELLO40M409918M05:20:5405:20:26
46624LAWRENCE FERREIRA CORDEIRO42M409919M05:21:1805:20:52
47602ELOAR ANDERSON GULMINE44M409920M05:24:1305:23:36
48623LAÉRCIO JOSÉ KAZMIERCZAK49M409921M05:24:4105:24:16
49610FABIO DANIEL CAVALHEIRO43M409922M05:28:5805:28:18
50658EDSON LUIZ DE MELL43M409923M05:29:0105:28:41
51543FERNANDO RIBEIRO DIAS JUNIOR31M303922M05:29:0805:28:47
52575MARCIO SALLES VALENTE28M18296M05:31:0605:23:54
53580ALESSANDRO DE ALMEIDA PRADO42M409924M05:31:1105:30:57
54588BRUNO MAURIZZIO TOSIN42M409925M05:32:3205:31:28
55642RENATO MULLER50M409926M05:32:3905:32:04
56590CARLOS EDUARDO COLOMBO42M409927M05:34:5405:33:51
57584ANGELO AGUSTO SCUCATO49M409928M05:35:2405:34:36
58626LUCIANO ANTONIO CORRADI45M409929M05:35:3105:34:53
59582ANDERSEN LEODAN SANCHES48M409930M05:37:2805:37:04
60633MICHEL ADRIANO OLIVEIRA44M409931M05:42:0605:41:13
61639PAULO ROBERTO KLAUMANN45M409932M05:44:5505:43:59
62598EDUARDO PIOLI ALBERTI47M409933M05:44:5605:43:58
63651TOMASCHEVISKI VALDUGA42M409934M05:46:0905:45:30
64609FÁBIO DA SILVA ALVES42M409935M05:46:2305:45:39
65660CESAR ANTONIO PLANCA39M303923M05:46:5505:45:47
66536DAVID CEDRAN NETO33M303924M05:48:1205:47:16
67620JOSÉ RICARDO DELFINO GENELHOUD54M409936M05:49:2005:48:58
68548HALYSSON FERNANDO DE ASSIS WECK34M303925M05:49:5705:47:49
69625LORIS DOS SANTOS TOALDO53M409937M05:52:2505:52:07
70525ALLEX LUTZ MARTINS31M303926M05:53:2005:51:13
71561RAFAEL PAULO DE FARIA39M303927M05:54:1105:53:03
72636NORBERT MELCHERT56M409938M05:55:0105:54:16
73649SANDRO WEIGERT44M409939M05:58:4005:57:48
74605EMERSON MAIA43M409940M05:58:4905:57:37
75641PETERSON ADRIANO DE OLIVEIRA40M409941M05:59:0705:56:51
76529ANDERSON OLIVEIRA LEITE37M303928M05:59:2505:56:53
77521ADLEY RAFAEL FIGUEIRA32M303929M06:04:2106:04:00
78574LUIZ HENRIQUE RAMOS MACHADO28M18297M06:07:3406:06:36
79530ANDERSON QUEVEDO DA SILVA37M303930M06:20:3806:19:42
80659FLAVIO ANTONIO DRUMOND40M409942M06:23:5306:23:36
81601ELIEL DA SILVA41M409943M06:25:4506:24:53
82647RUBENS JOSE RIBEIRO46M409944M06:25:4506:24:57
83534CLEVERSON FERREIRA DE CAMARGO37M303931M06:27:1906:26:20
84653WALDIR PALMEIRA DA SILVA54M409945M06:28:4706:28:00
85571DIEGO DA SILVA ALVES24M18298M06:31:0206:30:15
86631MARCOS JOSE HERZER40M409946M06:32:5206:31:52
87562RAFHAEL DE SOUZA PINTO36M303932M06:33:0406:32:51
88544FRANCISCO DE PAIVA LIMA34M303933M06:35:1706:33:00
89643RICARDO SOARES CAVASSIN44M409947M06:35:1706:33:00
90621JULIANO DOLATTO44M409948M06:37:1606:37:00
91648SAMUEL MACIEL SOARES55M409949M06:37:1906:36:51
92611FRANKLIN LUIZ LIEGEL43M409950M06:38:3906:38:08
93644RICARDO SOZZI54M409951M06:38:4906:37:46
94627MARCELO DE SIQUEIRA45M409952M06:43:0406:42:18
95538DIOGENES ANDREI STACHERA39M303934M06:46:2606:45:47
96547GUSTAVO VINICIO STACHERA33M303935M06:49:2106:48:40
97615HIGINO RUA MANDAJI40M409953M06:50:3206:50:14
98652WAGNER HENRIQUE GARCIA48M409954M06:51:2006:50:51
99570DENIS RICARDO NUNES29M18299M06:53:5006:52:53
100612GABRIEL FERREIRA NUNES41M409955M06:55:4306:53:31
101533CLAUDEMIR FERREIRA39M303936M06:55:4406:54:45
102654CLAUDIO LUIZ GURAS53M409956M06:57:3606:56:35
103655WELLINGTON LUIZ PADILHA42M409957M06:57:3706:56:37
104637OLACIR MORO50M409958M07:02:4007:02:07
105616JEFFERSON DOS REIS46M409959M07:05:4907:05:01
106524ALEXANDRE SANTOS DE OLIVEIRA39M303937M07:13:2507:12:25
107535DANIEL ELIAS SAUSS39M303938M07:14:4307:13:21
108614HELMUTH DUCK61M409960M07:17:5007:17:11
109640PERIGUARY DIAS FORTES46M409961M07:18:4307:18:09
110586ARNO SIEBERT40M409962M07:23:3507:22:56
111539DOUGLAS VILAR35M303939M07:25:1207:24:40
112600EDUARDO VILAR44M409963M07:25:1307:24:41
113545GEANDRO LUIZ SCOPEL37M303940M07:42:2607:41:44
114558MIGUEL GOMES RAUSIS34M303941M07:42:3207:42:14
115608FABIANO LUIS GUSSO41M409964M07:42:3507:42:19
116663ADRIANO APARECIDO BEVILAQUA40M409965M07:42:4707:42:47
117645RODRIGO AUGUSTO DE PAULA E SOUZA40M409966M07:45:0707:44:26
118613GUILHERME TEIDER ROCHA49M409967M07:45:2607:44:46
119565SERGIO BONATO35M303942M07:54:5307:54:34
120546GUILHERME GULIN GOMES34M303943M07:54:5707:54:44
121595DANILO HEREK47M409968M08:04:0208:03:09
122622JULIO CESAR DE FARIA50M409969M08:07:0008:06:44
123630MARCOS FRANCISCO DE LARA51M409970M08:08:2108:07:27
124646ROGERIO DANTE DE OLIVEIRA JUNIOR54M409971M08:31:0808:29:28
125632MARIO TOEWS50M409972M08:48:1008:47:28

Ciclismo - Duplas Fem


Cl.Num.NomeSx.EquipeTempoLiquido
1204REGINA / CARLAF07:17:4607:17:03

Ciclismo - Duplas Masc


Cl.Num.NomeSx.EquipeTempoLiquido
1222ALCIDES / MARCIOM03:56:3403:56:28
2217ADEMIR / HEBERSONM04:05:5504:05:48
3223CRISTIANO / ALUISIOM04:06:2704:06:18
4216ADILSON / ANDERSONM04:06:3104:06:30
5211SANDRO / RAMIRESM04:21:0804:20:58
6219LUIZ / CLAUDEMIRM04:53:1404:52:53
7224DANIEL / JOSIELM04:59:5604:59:50
8203EDNILSON / JOSEM05:13:2305:13:02
9214JONEI / JOAOM05:18:3205:17:48
10212RONALD / ANTONIOM05:26:3105:26:08
11225VICTOR / WILSONM05:26:3405:22:52
12207JOÃO / CARLOSM05:35:3605:35:17
13210GILMAR / ANDREM05:38:5305:37:58
14201MARCOS / JOSÉLIOM05:44:3105:43:59
15227GUSTAVO ANSELMO / CRISTIANO KULKAMECO RACERS06:14:3406:13:42
16208ALEXANDRE / LEONIDASM06:30:1106:29:55
17206MARCIO / GILBERTOM06:42:1106:41:22

Ciclismo - Duplas Mistas


Cl.Num.NomeSx.EquipeTempoLiquido
1215LUCIANA / JOAOM04:31:0304:30:57
2220WESLEY / JOCIMARAM04:32:5104:32:48
3213ROSÂNGELA / ADEMIRM04:36:4904:36:44
4218RICARDO / JANETM04:51:2204:51:20
5202FERNANDO / TATIANEM05:13:2805:13:25
6205KETLIN / RAPHAELM05:31:0905:29:28
7226TAIANA CARINHAS / FERNANDO CARINHASMCICLES LAGNER05:31:3805:31:09

Ciclismo - Quartetos Fem


Cl.Num.NomeSx.EquipeTempoLiquido
1406KAIRUZAN / ROSENILDA / MARLI / RUTHF06:19:0606:18:54
2408GIANE / LUCIANA / ELAINE / GIOVANAF08:11:0208:10:09

Ciclismo - Quartetos Masc


Cl.Num.NomeSx.EquipeTempoLiquido
1410OSVALDO / FERNANDO / EDENILSON / ELEANDROM03:49:1003:49:10
2413CRISTOFER / RAFAEL / ROSIEL / ALESSANDROM03:58:1703:58:15
3417CARLOS / EMILSON / ALESSANDRO / FERNANDOM04:00:2404:00:23
4420CLAUDIO / ANDRE / RODRIGO / LEONARDOMBIKERS HUNTER MADALOSSO TEAM04:09:0004:08:49
5407ORLANDO / LUCAS / JONATAS / THIAGOM05:03:5905:03:36
6416SIDINEY / AMILTON / GENTIL / DARCIM05:10:5105:10:42
7403RODOLFO / IGOR / NEWTON / WELLINGTONM05:15:4505:15:31
8402ALEXANDRE / EDUARDO / ANTONIO / SIDNEIM05:17:3805:17:25
9414BRUNO / PIETRO / LUIZ / MAICONM05:20:0305:18:59
10412CRYSTIAN / FABIO / LUIZ / DARLEYM05:26:0805:25:21
11401EDUARDO / FABIO / MAURO / WAGNERM05:28:5705:28:28
12405ANDRÉ / FRANCISCO / CARLOS / AKIRAM05:31:5005:31:29
13404JOELSON / FRANCISCO / DIMAS / ROBERTOM06:28:5306:28:30
14418ADILSON / EDUARDO / RODRIGO / RODRIGOM06:50:0006:49:03

Ciclismo - Quartetos Misto


Cl.Num.NomeSx.EquipeTempoLiquido
1409DANIEL / GISELLE / DEBORA / SULLIVANM04:30:4404:30:42
2415ALESSANDRA / JULIANA / JOAS / DANTEM04:51:0204:50:32
3411ROSANA / HELENA / ROBSON / ANDREM06:20:0606:19:19
4421THIAGO / JULIANE / SERAFIM / JESSICAMBIKE GD06:53:3306:52:44

GERAL COMPLETO CORRIDA COM PARCIAIS

GERAL COMPLETO CICLISMO COM PARCIAIS

Para dúvidas, sugestões ou reclamações entre em  contato conosco.

Se preferir também estamos disponíveis  em nossa página no Facebook.

Matriz Curitiba
Rua Cel. José Leal Fontoura, 141, Xaxim, Curitiba – PR

E-mail: chronomax@chronomax.com.br

Telefones:
41 3779.0706 / 41 9151.0706 (Vivo)

Atendimento Whatsapp
41 9151.0706